Weather in Naberezhnie Chelny

Russia / Republic of Tatarstan     55°44′36″N   52°23′45″E
temp.,
°C
wind,
m/s
gust,
m/s
humid.,
%
clouds,
%
prec.,
mm/h
press.,
hPa
HPBL,
m
27 january, thu
thu2700:00−11wsw3795100 0.9 1017426
03:00−12wsw4994100 1.1 1019361
06:00−15sw389684 0.1 1020200
09:00−14sw4109467 0.1 1021314
12:00−12sw4991100 0.0 1022441
15:00−14ssw259528 0.0 102397
18:00−20s2210041 0.0 102422
21:00−19s229971 0.0 102327
28 january, fri
fri2800:00−20s2210062 0.0 102313
03:00−20sse2110083 0.0 102311
06:00−16sse229880 0.1 102346
09:00−16se229884 0.1 102344
12:00−10se2393100 0.0 1022128
15:00−9ese2395100 0.0 102181
18:00−10e2696100 0.0 1021119
21:00−10ese3894100 0.0 1020178
29 january, sat
sat2900:00−11ese379394 0.0 1019144
03:00−11e249594 0.0 101879
06:00−16se229890 0.0 101717
09:00−14sse249675 0.0 101767
12:00−10sse358890 0.0 1016200
15:00−10se2493100 0.0 1015108
18:00−12sse2495100 0.0 101580
21:00−12sse2695100 0.0 101499
30 january, sun
sun3000:00−11se2696100 0.1 1012174
03:00−9se3895100 0.7 1010313
06:00−9sse379599 0.5 1009236
09:00−8sse379598 0.7 1008196
12:00−5sse3694100 0.4 1007267
15:00−4se259777 0.9 1006192
18:00−4sse2498100 0.2 100690
21:00−3s41096100 0.4 1005358
31 january, mon
mon3100:00−5ssw4109493 0.1 1006304
03:00−6ssw51192100 0.1 1007440
06:00−8s41193100 0.0 1007390
09:00−6s51290100 0.0 1007541
12:00−4sse61493100 0.1 1007614
15:00−2sse61494100 0.6 1005760
18:00−1s71693100 0.8 1005884
21:000ssw8169199 0.9 10051034